Regional Weather Roundup
Issued by NWS Green Bay, WI

Home | Current Version | Previous Version | Graphics & Text | Print | Product List | Glossary Off
Versions: 1 2 3 4 5 6 7 8 9 10 11 12 13 14 15 16 17 18 19 20 21 22 23 24 25 26 27 28 29 30 31 32 33 34 35 36 37 38 39 40 41 42 43 44 45 46 47 48 49 50

000
ASUS43 KGRB 191701
RWRGRB

NORTH-CENTRAL AND NORTHEAST WISCONSIN REGIONAL WEATHER ROUNDUP
NATIONAL WEATHER SERVICE GREEN BAY WI
1200 PM CDT SAT AUG 19 2017

WIZ005-009-010>012-018-019-191800-
NORTH CENTRAL WISCONSIN

CITY           SKY/WX    TMP DP  RH WIND       PRES   REMARKS
IRONWOOD       SUNNY     74  59  59 W7        29.90F
MANITOWISH WTR NOT AVBL
ARBOR VITAE    NOT AVBL
EAGLE RIVER    NOT AVBL
LAND O LAKES   NOT AVBL
RHINELANDER    SUNNY     76  60  57 W12       29.95S
PHILLIPS       NOT AVBL
ANTIGO         NOT AVBL
TOMAHAWK       NOT AVBL
MERRILL        NOT AVBL
$$

WIZ013-073-191800-
NORTHEAST WISCONSIN

CITY           SKY/WX    TMP DP  RH WIND       PRES   REMARKS
IRON MOUNTAIN  SUNNY     77  58  51 W10       29.88F
MARINETTE      SUNNY     76  63  64 VRB6      29.90S
$$

WIZ017-030-035>037-045-191800-
CENTRAL WISCONSIN

CITY           SKY/WX    TMP DP  RH WIND       PRES   REMARKS
MEDFORD        NOT AVBL
WAUSAU         SUNNY     75  60  59 W9        29.94S
MOSINEE        MOSUNNY   75  63  64 W9        29.97S
MARSHFIELD     MOSUNNY   75  61  61 W9        29.96F
WISC RAPIDS    SUNNY     77  62  59 W8        29.97F
STEVENS POINT  NOT AVBL
WAUPACA        NOT AVBL
SHAWANO        NOT AVBL
CLINTONVILLE   NOT AVBL
WAUTOMA        MOSUNNY   78  61  55 NW8       29.96S
$$

WIZ038-039-048-051-191800-
FOX VALLEY

CITY           SKY/WX    TMP DP  RH WIND       PRES   REMARKS
NWS GREEN BAY  SUNNY     77  66  68 W8        29.92F
APPLETON       SUNNY     75  57  53 W9        29.93S
OSHKOSH        SUNNY     75  63  66 W8        29.94F
FOND DU LAC    SUNNY     77  61  57 NW8       29.95F
$$

WIZ022-050-052-191800-
EAST CENTRAL WISCONSIN

CITY           SKY/WX    TMP DP  RH WIND       PRES   REMARKS
EPHRAIM        NOT AVBL
WASHINGTON ISL NOT AVBL
STURGEON BAY   NOT AVBL
MANITOWOC      NOT AVBL
SHEBOYGAN      SUNNY     76  64  66 W9        29.94S
$$

LMZ563-521-522-541>543-191800-
LAKESHORE

STATION/POSITION TIME  TEMP    WIND        PRES    VSBY  WAVE
                       AIR SEA DIR/SP/G                  HT/PER
                 (UTC) (F)     (DEG/KT/KT) (MB)    (MI)  (FT/S)
SHEBOYGAN LKSHOR 1600   72     260/  5/  7 1013.3F
KEWAUNEE LKSHORE 1630   73     270/  6/  9 1012.2S
NORTHPORT PIER   1640   72     280/  5/  9 1011.9S
N MID LAKE BUOY  1550   66 67  240/ 12/ 14 1012.3R         1/ 3
S GREEN BAY BUOY 1630   71 71  230/  8/ 10 1012.5S
SISTER BAY LKSHO 1603   72     250/ 11/ 13   N/A
MENOMINEE LKSHOR 1630   73     230/  9/ 11 1012.1S
$$



USA.gov is the U.S. government's official web portal to all federal, state and local government web resources and services.